AFR4 TNCC-KFLL

Flight info

Callsign AFR4
Flight time 1h 15m
Altitude 36000
Route KESVI UA315 JOSES Y398 KNSLY Y350 ZQA OLAHS3
Aircraft A319/M-SDE3FGHIRWY/LB1

Departure

Time 2026-05-03 21:03
Airport Hato International Airport (TNCC)

Arrival

Time 2026-05-03 22:19
Airport Fort Lauderdale Hollywood International Airport (KFLL)
Time Latitude Longitude Altitude Speed Heading
2026-05-03 20:42 12.18564 -68.95722 28 ft 0 kts 178°
2026-05-03 20:44 12.18569 -68.95723 28 ft 0 kts 178°
2026-05-03 20:52 12.18572 -68.95723 28 ft 4 kts 181°
2026-05-03 20:52 12.18595 -68.95722 28 ft 3 kts 181°
2026-05-03 20:52 12.18619 -68.95717 28 ft 4 kts 225°
2026-05-03 20:53 12.18632 -68.95699 28 ft 1 kts 233°
2026-05-03 20:53 12.18633 -68.95698 28 ft 0 kts 233°
2026-05-03 20:57 12.18630 -68.95702 28 ft 2 kts 233°
2026-05-03 20:57 12.18629 -68.95709 28 ft 0 kts 276°
2026-05-03 20:57 12.18632 -68.95711 28 ft 3 kts 302°
2026-05-03 20:58 12.18661 -68.95783 28 ft 15 kts 285°
2026-05-03 20:58 12.18684 -68.95892 28 ft 16 kts 281°
2026-05-03 20:58 12.18707 -68.96009 28 ft 18 kts 281°
2026-05-03 20:58 12.18731 -68.96137 28 ft 19 kts 281°
2026-05-03 20:59 12.18757 -68.96273 28 ft 20 kts 281°
2026-05-03 20:59 12.18785 -68.96417 28 ft 21 kts 281°
2026-05-03 20:59 12.18814 -68.96570 27 ft 23 kts 281°
2026-05-03 20:59 12.18844 -68.96732 27 ft 24 kts 281°
2026-05-03 21:00 12.18877 -68.96901 26 ft 25 kts 281°
2026-05-03 21:00 12.18914 -68.97015 26 ft 25 kts 294°
2026-05-03 21:00 12.18986 -68.97249 30 ft 27 kts 282°
2026-05-03 21:00 12.19025 -68.97440 26 ft 28 kts 281°
2026-05-03 21:01 12.19063 -68.97583 26 ft 15 kts 326°
2026-05-03 21:01 12.19137 -68.97575 28 ft 0 kts 15°
2026-05-03 21:01 12.19151 -68.97571 26 ft 3 kts 15°
2026-05-03 21:02 12.19181 -68.97563 28 ft 6 kts 15°
2026-05-03 21:02 12.19216 -68.97537 26 ft 8 kts 66°
2026-05-03 21:02 12.19211 -68.97481 28 ft 9 kts 102°
2026-05-03 21:02 12.19176 -68.97312 26 ft 57 kts 102°
2026-05-03 21:03 12.19048 -68.96684 28 ft 121 kts 102°
2026-05-03 21:03 12.18829 -68.95666 29 ft 170 kts 103°
2026-05-03 21:03 12.18563 -68.94435 535 ft 180 kts 101°
2026-05-03 21:03 12.18302 -68.93199 1409 ft 176 kts 100°
2026-05-03 21:04 12.18043 -68.91968 2155 ft 184 kts 100°
2026-05-03 21:04 12.17762 -68.90618 2661 ft 203 kts 101°
2026-05-03 21:04 12.17511 -68.89127 3211 ft 222 kts 91°
2026-05-03 21:04 12.18037 -68.87628 3913 ft 237 kts 53°
2026-05-03 21:05 12.19468 -68.86617 4458 ft 266 kts 27°
2026-05-03 21:05 12.21253 -68.85977 5291 ft 276 kts 19°
2026-05-03 21:05 12.23129 -68.85458 6221 ft 281 kts 17°
2026-05-03 21:05 12.25031 -68.84956 7109 ft 284 kts 18°
2026-05-03 21:06 12.26951 -68.84423 7969 ft 288 kts 19°
2026-05-03 21:06 12.28890 -68.83852 8816 ft 292 kts 19°
2026-05-03 21:06 12.30852 -68.83244 9661 ft 297 kts 20°
2026-05-03 21:06 12.32853 -68.82603 10268 ft 309 kts 20°
2026-05-03 21:07 12.34977 -68.81908 10553 ft 333 kts 21°
2026-05-03 21:07 12.37229 -68.81164 11057 ft 345 kts 20°
2026-05-03 21:07 12.39533 -68.80402 11772 ft 350 kts 21°
2026-05-03 21:07 12.41854 -68.79637 12519 ft 353 kts 21°
2026-05-03 21:08 12.46684 -68.78054 14036 ft 360 kts 21°
2026-05-03 21:08 12.56428 -68.74866 16576 ft 375 kts 20°
2026-05-03 21:08 12.66877 -68.73034 18920 ft 400 kts 351°
2026-05-03 21:08 12.76881 -68.78277 21382 ft 409 kts 329°
2026-05-03 21:09 12.86757 -68.84137 23801 ft 412 kts 329°
2026-05-03 21:09 12.96717 -68.90123 25640 ft 417 kts 328°
2026-05-03 21:09 13.06902 -68.96239 27182 ft 429 kts 327°
2026-05-03 21:09 13.17320 -69.02493 28769 ft 438 kts 327°
2026-05-03 21:10 13.27942 -69.08890 30263 ft 447 kts 327°
2026-05-03 21:10 13.38740 -69.15402 31530 ft 453 kts 328°
2026-05-03 21:10 13.49611 -69.21940 33144 ft 452 kts 327°
2026-05-03 21:10 13.60419 -69.28469 34792 ft 448 kts 327°
2026-05-03 21:11 13.71103 -69.34912 35983 ft 447 kts 327°
2026-05-03 21:11 13.81635 -69.41292 35882 ft 437 kts 327°
2026-05-03 21:11 13.92083 -69.47622 35993 ft 432 kts 327°
2026-05-03 21:11 14.02533 -69.53943 36048 ft 435 kts 327°
2026-05-03 21:12 14.23559 -69.66724 35888 ft 440 kts 327°
2026-05-03 21:12 14.44575 -69.79508 36025 ft 436 kts 328°
2026-05-03 21:13 14.65682 -69.92382 35990 ft 442 kts 328°
2026-05-03 21:13 14.86804 -70.05290 35995 ft 439 kts 328°
2026-05-03 21:14 15.07765 -70.18130 35987 ft 437 kts 328°
2026-05-03 21:14 15.28692 -70.30987 35983 ft 437 kts 328°
2026-05-03 21:15 15.49601 -70.43848 35980 ft 437 kts 328°
2026-05-03 21:15 15.70484 -70.56743 35973 ft 437 kts 328°
2026-05-03 21:16 15.91237 -70.69560 35993 ft 436 kts 328°
2026-05-03 21:16 16.12116 -70.82446 35990 ft 436 kts 328°
2026-05-03 21:17 16.29588 -70.93245 36004 ft 436 kts 327°
2026-05-03 21:17 16.53843 -71.08253 36009 ft 436 kts 327°
2026-05-03 21:18 16.74658 -71.21178 36009 ft 435 kts 327°
2026-05-03 21:18 16.95439 -71.34113 36001 ft 434 kts 327°
2026-05-03 21:19 17.16203 -71.47061 36004 ft 434 kts 327°
2026-05-03 21:19 17.36944 -71.60026 36004 ft 434 kts 327°
2026-05-03 21:20 17.57708 -71.73035 36014 ft 435 kts 327°
2026-05-03 21:20 17.78460 -71.86058 36008 ft 434 kts 327°
2026-05-03 21:21 17.99303 -71.98933 36018 ft 435 kts 329°
2026-05-03 21:21 18.20567 -72.11216 36017 ft 436 kts 328°
2026-05-03 21:22 18.42164 -72.22579 35982 ft 438 kts 332°
2026-05-03 21:22 18.63993 -72.33943 35994 ft 437 kts 328°
2026-05-03 21:23 18.85246 -72.46383 35988 ft 436 kts 329°
2026-05-03 21:23 19.06483 -72.58705 35999 ft 434 kts 328°
2026-05-03 21:24 19.27501 -72.71213 35996 ft 432 kts 328°
2026-05-03 21:24 19.48402 -72.83716 35994 ft 431 kts 328°
2026-05-03 21:25 19.69294 -72.96257 36020 ft 432 kts 327°
2026-05-03 21:25 19.90409 -73.08448 36006 ft 432 kts 329°
2026-05-03 21:26 20.11721 -73.20297 36001 ft 432 kts 329°
2026-05-03 21:26 20.33003 -73.32226 36009 ft 433 kts 329°
2026-05-03 21:27 20.54319 -73.44175 36004 ft 433 kts 329°
2026-05-03 21:27 20.75616 -73.56143 36000 ft 432 kts 329°
2026-05-03 21:28 20.96792 -73.68310 35963 ft 430 kts 321°
2026-05-03 21:28 21.15206 -73.84617 36035 ft 429 kts 317°
2026-05-03 21:29 21.33540 -74.00919 36022 ft 427 kts 317°
2026-05-03 21:29 21.51811 -74.17198 36029 ft 426 kts 317°
2026-05-03 21:30 21.69989 -74.33454 36017 ft 425 kts 317°
2026-05-03 21:30 21.88101 -74.49702 36038 ft 423 kts 316°
2026-05-03 21:31 22.06137 -74.65960 36056 ft 422 kts 316°
2026-05-03 21:31 22.23957 -74.82057 36025 ft 420 kts 316°
2026-05-03 21:32 22.41797 -74.98243 36032 ft 418 kts 315°
2026-05-03 21:32 22.59591 -75.14436 36015 ft 417 kts 315°
2026-05-03 21:33 22.77363 -75.30646 36039 ft 418 kts 315°
2026-05-03 21:33 22.95107 -75.46910 36039 ft 418 kts 314°
2026-05-03 21:34 23.12827 -75.63223 36057 ft 417 kts 314°
2026-05-03 21:34 23.30508 -75.79533 36038 ft 416 kts 314°
2026-05-03 21:35 23.45273 -75.93198 36054 ft 415 kts 314°
2026-05-03 21:35 23.62832 -76.09510 36013 ft 413 kts 314°
2026-05-03 21:36 23.80319 -76.25810 36029 ft 412 kts 313°
2026-05-03 21:36 23.97419 -76.42217 36019 ft 411 kts 313°
2026-05-03 21:37 24.14596 -76.58772 36029 ft 411 kts 312°
2026-05-03 21:37 24.31709 -76.75352 36023 ft 410 kts 312°
2026-05-03 21:38 24.48790 -76.91964 36054 ft 411 kts 311°
2026-05-03 21:38 24.65884 -77.08623 36041 ft 410 kts 311°
2026-05-03 21:39 24.82898 -77.25299 36052 ft 410 kts 311°
2026-05-03 21:39 24.99909 -77.42030 36047 ft 410 kts 311°
2026-05-03 21:40 25.05677 -77.52251 36034 ft 392 kts 290°
2026-05-03 21:40 25.10326 -77.63198 36037 ft 396 kts 290°
2026-05-03 21:40 25.14403 -77.72671 36053 ft 398 kts 290°
2026-05-03 21:41 25.16796 -77.78180 36045 ft 398 kts 290°
2026-05-03 21:41 25.19189 -77.83680 36037 ft 398 kts 290°
2026-05-03 21:42 25.21135 -77.89330 36049 ft 391 kts 284°
2026-05-03 21:42 25.22868 -77.95007 36047 ft 389 kts 284°
2026-05-03 21:43 25.24582 -78.00664 36053 ft 388 kts 284°
2026-05-03 21:43 25.26304 -78.06303 36050 ft 387 kts 284°
2026-05-03 21:44 25.28031 -78.11928 36039 ft 386 kts 284°
2026-05-03 21:44 25.29754 -78.17551 36040 ft 386 kts 284°
2026-05-03 21:45 25.31872 -78.23061 36004 ft 391 kts 289°
2026-05-03 21:45 25.34089 -78.28573 36004 ft 393 kts 289°
2026-05-03 21:46 25.36304 -78.34114 36000 ft 395 kts 288°
2026-05-03 21:46 25.37413 -78.36896 35384 ft 398 kts 288°
2026-05-03 21:46 25.38537 -78.39726 34448 ft 405 kts 289°
2026-05-03 21:47 25.39670 -78.42576 33372 ft 405 kts 289°
2026-05-03 21:47 25.40810 -78.45434 32011 ft 409 kts 288°
2026-05-03 21:47 25.41956 -78.48328 31045 ft 407 kts 288°
2026-05-03 21:47 25.43061 -78.51165 30370 ft 397 kts 287°
2026-05-03 21:48 25.44132 -78.53951 29512 ft 391 kts 287°
2026-05-03 21:48 25.45182 -78.56704 28606 ft 386 kts 287°
2026-05-03 21:48 25.46217 -78.59422 27718 ft 381 kts 288°
2026-05-03 21:48 25.47229 -78.62079 26873 ft 377 kts 288°
2026-05-03 21:49 25.48243 -78.64738 26051 ft 373 kts 288°
2026-05-03 21:49 25.49261 -78.67398 25269 ft 369 kts 288°
2026-05-03 21:49 25.50251 -78.69982 24687 ft 369 kts 288°
2026-05-03 21:49 25.51250 -78.72596 24169 ft 369 kts 289°
2026-05-03 21:50 25.52248 -78.75211 23706 ft 368 kts 288°
2026-05-03 21:50 25.53236 -78.77790 23383 ft 359 kts 288°
2026-05-03 21:50 25.54207 -78.80322 22610 ft 357 kts 288°
2026-05-03 21:50 25.55173 -78.82853 22058 ft 357 kts 288°
2026-05-03 21:51 25.56133 -78.85378 21632 ft 353 kts 288°
2026-05-03 21:51 25.57091 -78.87895 21114 ft 353 kts 289°
2026-05-03 21:51 25.58041 -78.90393 20566 ft 353 kts 289°
2026-05-03 21:51 25.58985 -78.92876 20240 ft 347 kts 289°
2026-05-03 21:52 25.59918 -78.95326 19625 ft 344 kts 289°
2026-05-03 21:52 25.60844 -78.97758 18993 ft 342 kts 289°
2026-05-03 21:52 25.61769 -79.00196 18475 ft 344 kts 289°
2026-05-03 21:52 25.62693 -79.02633 18022 ft 342 kts 289°
2026-05-03 21:53 25.63612 -79.05054 17491 ft 341 kts 289°
2026-05-03 21:53 25.64512 -79.07456 17218 ft 334 kts 289°
2026-05-03 21:53 25.65389 -79.09818 16848 ft 330 kts 289°
2026-05-03 21:53 25.66257 -79.12160 16442 ft 327 kts 289°
2026-05-03 21:54 25.67117 -79.14489 16041 ft 326 kts 289°
2026-05-03 21:54 25.67973 -79.16812 15646 ft 324 kts 289°
2026-05-03 21:54 25.68819 -79.19113 15261 ft 322 kts 289°
2026-05-03 21:54 25.69660 -79.21409 14877 ft 321 kts 289°
2026-05-03 21:55 25.70497 -79.23696 14500 ft 319 kts 289°
2026-05-03 21:55 25.71330 -79.25970 14180 ft 318 kts 289°
2026-05-03 21:55 25.72160 -79.28243 13819 ft 318 kts 289°
2026-05-03 21:55 25.72987 -79.30511 13384 ft 317 kts 289°
2026-05-03 21:56 25.73809 -79.32772 12952 ft 315 kts 289°
2026-05-03 21:56 25.74624 -79.35023 12527 ft 314 kts 289°
2026-05-03 21:56 25.75440 -79.37260 12111 ft 312 kts 290°
2026-05-03 21:56 25.76275 -79.39480 11691 ft 310 kts 290°
2026-05-03 21:57 25.77103 -79.41679 11286 ft 308 kts 290°
2026-05-03 21:57 25.77925 -79.43864 10869 ft 307 kts 290°
2026-05-03 21:57 25.78751 -79.46045 10426 ft 306 kts 290°
2026-05-03 21:57 25.79571 -79.48223 9985 ft 306 kts 290°
2026-05-03 21:58 25.80380 -79.50378 9498 ft 297 kts 290°
2026-05-03 21:58 25.81160 -79.52451 9019 ft 287 kts 290°
2026-05-03 21:58 25.81917 -79.54463 8547 ft 278 kts 290°
2026-05-03 21:58 25.82654 -79.56420 8085 ft 272 kts 290°
2026-05-03 21:59 25.83381 -79.58352 7626 ft 272 kts 290°
2026-05-03 21:59 25.84110 -79.60298 7171 ft 273 kts 290°
2026-05-03 21:59 25.84837 -79.62249 6729 ft 274 kts 290°
2026-05-03 21:59 25.85564 -79.64202 6272 ft 274 kts 291°
2026-05-03 22:00 25.86334 -79.66130 6011 ft 268 kts 292°
2026-05-03 22:00 25.87101 -79.68007 5994 ft 266 kts 292°
2026-05-03 22:00 25.87868 -79.69879 5997 ft 266 kts 292°
2026-05-03 22:00 25.88634 -79.71752 5998 ft 267 kts 292°
2026-05-03 22:01 25.89401 -79.73627 6009 ft 267 kts 292°
2026-05-03 22:01 25.90161 -79.75474 6000 ft 265 kts 292°
2026-05-03 22:01 25.90937 -79.77351 5998 ft 264 kts 292°
2026-05-03 22:01 25.91705 -79.79206 5998 ft 264 kts 292°
2026-05-03 22:02 25.92473 -79.81060 5998 ft 263 kts 292°
2026-05-03 22:02 25.93238 -79.82898 5998 ft 262 kts 292°
2026-05-03 22:02 25.93993 -79.84714 5998 ft 262 kts 292°
2026-05-03 22:02 25.94761 -79.86553 5998 ft 262 kts 292°
2026-05-03 22:03 25.95530 -79.88393 5993 ft 262 kts 292°
2026-05-03 22:03 25.96297 -79.90231 5994 ft 262 kts 292°
2026-05-03 22:03 25.97064 -79.92070 5994 ft 262 kts 292°
2026-05-03 22:03 25.97832 -79.93910 5995 ft 263 kts 292°
2026-05-03 22:04 25.98741 -79.95678 5991 ft 267 kts 307°
2026-05-03 22:04 26.00041 -79.97170 5996 ft 268 kts 312°
2026-05-03 22:04 26.01367 -79.98618 5995 ft 267 kts 312°
2026-05-03 22:04 26.02701 -80.00059 5999 ft 267 kts 312°
2026-05-03 22:05 26.04030 -80.01496 5997 ft 263 kts 312°
2026-05-03 22:05 26.05299 -80.02859 5996 ft 245 kts 312°
2026-05-03 22:05 26.06488 -80.04122 5998 ft 229 kts 313°
2026-05-03 22:05 26.07630 -80.05330 5999 ft 225 kts 312°
2026-05-03 22:06 26.08765 -80.06526 5999 ft 225 kts 312°
2026-05-03 22:06 26.09901 -80.07720 6000 ft 225 kts 312°
2026-05-03 22:06 26.11036 -80.08914 6000 ft 224 kts 312°
2026-05-03 22:06 26.12169 -80.10106 6000 ft 224 kts 312°
2026-05-03 22:07 26.13305 -80.11298 6000 ft 224 kts 312°
2026-05-03 22:07 26.14439 -80.12489 6000 ft 224 kts 313°
2026-05-03 22:07 26.15579 -80.13686 5844 ft 225 kts 312°
2026-05-03 22:07 26.16586 -80.14981 5599 ft 218 kts 293°
2026-05-03 22:08 26.16892 -80.16596 5359 ft 213 kts 270°
2026-05-03 22:08 26.16899 -80.18254 5116 ft 215 kts 268°
2026-05-03 22:08 26.16839 -80.19898 4879 ft 215 kts 266°
2026-05-03 22:08 26.16753 -80.21572 4630 ft 217 kts 265°
2026-05-03 22:09 26.16654 -80.23250 4380 ft 217 kts 265°
2026-05-03 22:09 26.16552 -80.24937 4136 ft 219 kts 265°
2026-05-03 22:09 26.16463 -80.26625 3888 ft 217 kts 266°
2026-05-03 22:10 26.16233 -80.29949 3393 ft 216 kts 265°
2026-05-03 22:10 26.16111 -80.31626 3146 ft 217 kts 266°
2026-05-03 22:10 26.15994 -80.33287 3029 ft 215 kts 266°
2026-05-03 22:10 26.15873 -80.34949 3009 ft 217 kts 266°
2026-05-03 22:11 26.15747 -80.36621 3012 ft 217 kts 265°
2026-05-03 22:11 26.15623 -80.38301 3013 ft 219 kts 265°
2026-05-03 22:11 26.15502 -80.39983 3013 ft 217 kts 265°
2026-05-03 22:11 26.15386 -80.41658 3014 ft 217 kts 266°
2026-05-03 22:12 26.15269 -80.43334 3014 ft 218 kts 265°
2026-05-03 22:12 26.15153 -80.45018 3014 ft 219 kts 265°
2026-05-03 22:12 26.14922 -80.46685 3014 ft 218 kts 249°
2026-05-03 22:12 26.13986 -80.47991 3013 ft 221 kts 213°
2026-05-03 22:13 26.12530 -80.48481 3011 ft 223 kts 181°
2026-05-03 22:13 26.11026 -80.48096 3013 ft 226 kts 150°
2026-05-03 22:13 26.09954 -80.46867 3016 ft 227 kts 120°
2026-05-03 22:13 26.09257 -80.45261 3013 ft 229 kts 114°
2026-05-03 22:14 26.08630 -80.43627 3016 ft 230 kts 112°
2026-05-03 22:14 26.08013 -80.41975 3012 ft 230 kts 111°
2026-05-03 22:14 26.07749 -80.40241 3014 ft 230 kts 89°
2026-05-03 22:14 26.07776 -80.38470 3013 ft 228 kts 88°
2026-05-03 22:15 26.07788 -80.36725 3010 ft 229 kts 89°
2026-05-03 22:15 26.07784 -80.34955 3006 ft 229 kts 90°
2026-05-03 22:15 26.07776 -80.33179 2843 ft 229 kts 89°
2026-05-03 22:15 26.07768 -80.31406 2575 ft 228 kts 90°
2026-05-03 22:16 26.07760 -80.29646 2285 ft 227 kts 89°
2026-05-03 22:16 26.07752 -80.27903 1986 ft 221 kts 89°
2026-05-03 22:16 26.07743 -80.26232 1707 ft 211 kts 89°
2026-05-03 22:16 26.07735 -80.24631 1435 ft 203 kts 89°
2026-05-03 22:17 26.07728 -80.23095 1183 ft 193 kts 88°
2026-05-03 22:17 26.07723 -80.22124 1005 ft 186 kts 89°
2026-05-03 22:17 26.07715 -80.20732 776 ft 174 kts 88°
2026-05-03 22:17 26.07708 -80.19442 574 ft 157 kts 88°
2026-05-03 22:18 26.07701 -80.18300 373 ft 141 kts 88°
2026-05-03 22:18 26.07696 -80.17248 191 ft 132 kts 86°
2026-05-03 22:18 26.07691 -80.16239 32 ft 127 kts 88°
2026-05-03 22:18 26.07689 -80.15431 17 ft 80 kts 91°
2026-05-03 22:19 26.07682 -80.15003 19 ft 30 kts 91°
2026-05-03 22:19 26.07680 -80.14822 24 ft 23 kts 90°
2026-05-03 22:19 26.07644 -80.14627 26 ft 15 kts 111°
2026-05-03 22:19 26.07634 -80.14607 24 ft 0 kts 120°
2026-05-03 22:21 26.07633 -80.14605 24 ft 2 kts 120°
2026-05-03 22:21 26.07619 -80.14576 25 ft 5 kts 117°
2026-05-03 22:21 26.07596 -80.14528 25 ft 12 kts 119°
2026-05-03 22:22 26.07561 -80.14418 28 ft 17 kts 94°
2026-05-03 22:22 26.07558 -80.14283 25 ft 11 kts 91°
2026-05-03 22:22 26.07503 -80.14221 24 ft 14 kts 156°
2026-05-03 22:22 26.07412 -80.14205 23 ft 10 kts 221°
2026-05-03 22:23 26.07380 -80.14270 24 ft 0 kts 243°